Location: La Chapelle
(48.3135°N, 1.3085°W)
Time: 21:17:37
(UTC+00:00)

Cosmos 2278 Rocket - Pass Details

Date: 03 March 2021
Orbit: 841 x 845 km, 71.0° (Epoch: 14 April)

Event Time Altitude Azimuth Distance (km) Brightness Sun altitude
Rises 20:22:49 0° 333° (NNW) 3,416 6.0 -25.4°
Reaches altitude 10° 20:25:18 10° 337° (NNW) 2,476 5.2 -25.8°
Enters shadow 20:30:42 63° 44° (NE) 941 2.2 -26.6°
